Vertical_Velocity
0 0 -1 2 1 0 -1 -3 -1 1 -1 -1 -4 2 1 -2 -2 1 2 -2 -1 -3 -2 -6 -1 -4 -1
0 -2 0 -2 0 2 0 -2 1 1 -1 -1 -3 -1 0 -1 -1 -1 -5 -4 1 -3 -2 -4 -3 3 2
1 -3 -3 3 -0 -3 -0 1 1 -2 -1 -4 1 -1 -2 -2 -1 0 0 -1 -1 1 -1 0 2 2 4
2 -1 0 2 -4 0 3 -0 -2 -3 -1 2 1 -0 -5 -4 -3 -2 -3 -4 -2 -3 -4 -3 -5 -5 -3
3 1 0 -4 3 4 -1 -1 -2 2 -2 0 0 -1 -6 -6 -7 -4 -4 -3 -3 -2 -2 1 1 1 1
3 -4 -3 -1 -1 -2 3 0 -2 -1 4 -3 -2 -1 1 -4 -3 -2 -5 -6 -2 -2 1 -2 3 -3 -5
-3 2 2 -3 -3 1 1 1 -2 -6 -4 5 -1 4 0 -4 -0 3 1 1 1 0 -1 -7 -3 -3 0
2 -0 1 -1 -0 2 -2 -1 -4 -5 -1 1 -2 2 3 -10 -5 -6 -5 -5 -5 -6 -6 -6 0 1 -2
4 -2 4 0 -2 4 -2 -7 -2 -7 3 -3 -3 -3 12 4 -3 -5 -2 -3 -5 -6 3 3 -5 -5 2
-2 4 1 -1 -3 0 0 -4 3 4 -6 -4 -1 -11 2 19 3 -5 -1 -6 -3 2 -2 -3 -5 -6 -4
3 3 2 -2 -1 2 2 -5 -3 -2 -8 -3 -2 -4 -1 -19 9 4 1 4 -0 0 -1 2 2 -2 -10
-1 1 3 1 -6 5 1 0 -2 2 -1 -5 -5 -1 -0 -1 -2 2 -2 1 -4 -4 -3 2 5 0 2
-2 -4 0 -3 -1 4 2 -2 -2 -3 -1 -5 -3 -5 -0 -5 -6 -3 -14 7 -2 -5 -1 1 -6 -3 -16
3 1 -1 -2 3 1 -1 -0 2 -6 -9 -5 -1 -3 -1 -3 -4 -1 -6 -21 1 0 -3 -4 -1 4 -2
-0 2 -2 4 5 -2 1 -2 3 3 -4 -6 -8 -1 -2 -5 2 -5 -5 -2 -3 -7 -7 -5 4 -3 -0
3 -4 6 2 -4 -2 -2 1 4 -2 1 -3 -2 1 0 10 -9 -2 1 -12 -3 -3 3 -15 -2 16 2
12 7 5 -4 -2 -4 1 2 -1 1 -4 -6 -3 -2 -1 -3 7 1 -8 -1 -7 -3 -6 -3 -16 4 -8
Height
3100 3100 3100 3100 3100 3098 3097 3094 3091 3089 3085 3084 3080 3077 3074 3070 3066 3063 3060 3056 3052 3049 3046 3043 3039 3035 3031
3092 3094 3094 3093 3092 3091 3090 3087 3083 3080 3076 3075 3072 3068 3064 3061 3058 3054 3051 3047 3044 3040 3036 3032 3029 3026 3021
3085 3085 3086 3084 3084 3084 3081 3078 3075 3071 3068 3066 3064 3060 3057 3054 3050 3046 3042 3039 3035 3031 3026 3022 3018 3013 3007
3076 3076 3076 3077 3077 3075 3072 3070 3066 3063 3060 3059 3056 3053 3049 3046 3043 3039 3034 3029 3025 3020 3015 3010 3005 3000 2995
3066 3067 3069 3069 3066 3065 3063 3060 3058 3055 3053 3051 3049 3045 3041 3038 3034 3030 3026 3020 3015 3009 3004 2999 2993 2989 2984
3058 3057 3059 3060 3058 3055 3053 3052 3050 3047 3046 3044 3039 3038 3034 3030 3025 3021 3016 3011 3005 2999 2993 2988 2983 2978 2973
3050 3051 3051 3049 3048 3047 3045 3045 3042 3039 3037 3037 3032 3030 3026 3021 3015 3011 3006 2999 2993 2987 2981 2978 2974 2969 2963
3042 3042 3041 3040 3039 3039 3038 3037 3034 3032 3027 3025 3023 3020 3017 3013 3007 3003 2996 2990 2984 2978 2971 2965 2962 2957 2952
3032 3032 3032 3032 3031 3031 3029 3028 3026 3023 3020 3016 3013 3009 3007 3004 2999 2993 2989 2981 2973 2968 2961 2954 2949 2945 2941
3024 3024 3025 3024 3024 3023 3022 3019 3015 3014 3012 3008 3005 2999 2994 2994 2995 2986 2979 2973 2967 2959 2953 2946 2939 2934 2929
3016 3016 3016 3017 3017 3016 3013 3011 3009 3005 3001 2997 2995 2991 2986 2980 2978 2974 2967 2962 2957 2951 2945 2938 2932 2924 2916
3009 3009 3010 3009 3009 3008 3006 3004 3001 2998 2993 2988 2983 2980 2974 2968 2963 2960 2954 2950 2944 2939 2934 2928 2922 2915 2907
3002 3003 3003 3003 3001 3000 2997 2996 2991 2988 2985 2981 2975 2972 2965 2960 2952 2948 2941 2940 2934 2928 2922 2916 2910 2903 2896
2997 2997 2997 2996 2994 2992 2988 2986 2983 2978 2975 2971 2965 2959 2955 2951 2946 2939 2935 2929 2925 2919 2911 2906 2901 2896 2889
2992 2992 2990 2989 2987 2984 2981 2979 2976 2972 2969 2963 2957 2952 2948 2944 2939 2933 2927 2923 2917 2911 2905 2898 2894 2888 2882
2985 2985 2984 2980 2980 2976 2974 2971 2967 2963 2959 2956 2953 2949 2945 2942 2934 2927 2921 2917 2910 2904 2897 2889 2885 2882 2875
2979 2976 2975 2973 2972 2968 2968 2963 2960 2956 2951 2947 2943 2939 2935 2931 2930 2921 2912 2908 2902 2898 2891 2886 2878 2873 2866